utc_time,unix_time,temp,cond,salinity,tds,chla_rfu,chla_ugl,bga_rfu,bga_ugl,odo,sat,nitrate_um,nitrogen_mg,stage,area,discharge,total_discharge
2017-12-01 00:00:00+00:00,1512086771,14.502,,22.84,23.47,0.73,2.91,0.37,1.04,13.76,155.38,66.242,0.92783,,,,
2017-12-01 00:20:00+00:00,1512088121,14.4305,,22.8,23.44,0.73,2.905,0.33,0.93,13.41,151.185,64.5365,0.90394,,,,
2017-12-01 00:40:00+00:00,1512089471,14.359,,23.55,24.14,0.73,2.9,0.38,1.07,12.96,146.54,63.547,0.8901,,,,
2017-12-01 01:00:00+00:00,1512090371,14.319,,22.51,23.17,0.75,2.99,0.42,1.18,12.74,143.04,61.374,0.85963,,,,
2017-12-01 01:20:00+00:00,1512091721,14.2765,,23.165,23.78,0.72,2.875,0.415,1.155,12.97,146.08,60.377,0.84568,,,,
2017-12-01 01:40:00+00:00,1512093071,14.152,,24.23,24.78,0.59,2.36,0.24,0.66,13.07,147.71,58.982,0.82615,,,,
2017-12-01 02:00:00+00:00,1512093971,14.134,,24.4,24.94,0.64,2.56,0.16,0.44,12.94,146.42,58.945,0.82564,,,,
2017-12-01 02:20:00+00:00,1512095321,14.061,,24.87,25.365,1.295,5.17,0.37,1.04,12.535,141.955,58.8855,0.82479,,,,
2017-12-01 02:40:00+00:00,1512096671,13.999,,25.45,25.91,1.18,4.71,0.19,0.55,12.42,141.08,60.731,0.85064,,,,
2017-12-01 03:00:00+00:00,1512097571,13.978,,24.96,25.45,1.54,6.17,0.34,0.95,12.06,136.44,59.041,0.82695,,,,
2017-12-01 03:20:00+00:00,1512098920.5,13.9385,,24.81,25.31,1.31,5.23,0.47,1.315,11.75,132.73,59.9905,0.840285,,,,
2017-12-01 03:40:00+00:00,1512100270,13.869,,23.5,24.11,1.08,4.31,0.27,0.77,12.13,135.77,58.85,0.8243,,,,
2017-12-01 04:00:00+00:00,1512101171,13.881,,22.78,23.43,0.91,3.64,0.09,0.25,11.7,130.41,59.138,0.82832,,,,
2017-12-01 04:20:00+00:00,1512102521,13.834,,24.78,25.29,0.935,3.745,0.22,0.615,11.465,129.205,58.097,0.81375,,,,
2017-12-01 04:40:00+00:00,1512103871,13.739,,25.22,25.7,0.9,3.62,0.07,0.2,11.69,131.87,57.044,0.79902,,,,
2017-12-01 05:00:00+00:00,1512104771,13.7,,24.39,24.93,0.96,3.85,0.22,0.61,11.35,127.21,56.299,0.78857,,,,
2017-12-01 05:20:00+00:00,1512106121,13.6335,,23.055,23.69,0.92,3.675,0.135,0.38,11.07,122.995,56.325,0.78894,,,,
2017-12-01 05:40:00+00:00,1512107471,13.573,,22.14,22.83,0.85,3.39,0.17,0.47,10.65,117.41,56.213,0.78738,,,,
2017-12-01 06:00:00+00:00,1512108370,13.523,,22.28,22.97,0.87,3.46,0.2,0.57,10.42,114.91,56.925,0.79733,,,,
2017-12-01 06:20:00+00:00,1512109720,13.4345,,22.16,22.855,0.855,3.435,0.105,0.29,10.36,113.925,56.569,0.79237,,,,
2017-12-01 06:40:00+00:00,1512111071,13.349,,22.3,22.99,0.83,3.33,0.18,0.49,9.87,108.47,56.426,0.79034,,,,
2017-12-01 07:00:00+00:00,1512111971,13.324,,22.22,22.92,0.96,3.84,0.33,0.92,9.69,106.36,55.736,0.78064,,,,
2017-12-01 07:20:00+00:00,1512113321,13.242,,23.145,23.785,0.96,3.84,0.395,1.105,9.51,104.81,56.0675,0.78531,,,,
2017-12-01 07:40:00+00:00,1512114671,13.156,,21.3,22.05,0.68,2.73,0.15,0.43,9.47,102.97,58.338,0.81715,,,,
2017-12-01 08:00:00+00:00,1512115571,13.128,,21.24,22,0.87,3.48,0.59,1.66,9.73,105.73,55.308,0.77468,,,,
2017-12-01 08:20:00+00:00,1512116920,13.0455,,22.72,23.39,0.815,3.255,0.12,0.335,9.565,104.655,55.988,0.784205,,,,
2017-12-01 08:40:00+00:00,1512118270,12.975,,22.71,23.38,0.74,2.98,0.21,0.59,9.19,100.47,55.721,0.78045,,,,
2017-12-01 09:00:00+00:00,1512119170,12.94,,23.86,24.46,0.66,2.63,0.28,0.78,9.51,104.56,55.461,0.77683,,,,
2017-12-01 09:20:00+00:00,1512120520.5,12.856,,23.295,23.925,0.58,2.32,0.085,0.24,9.575,104.745,55.18,0.77289,,,,
2017-12-01 09:40:00+00:00,1512121871,12.75,,23.21,23.85,0.59,2.36,0.21,0.59,8.92,97.3,56.072,0.78542,,,,
2017-12-01 10:00:00+00:00,1512122771,12.727,,23.48,24.11,0.69,2.77,0.28,0.79,8.48,92.67,54.792,0.76746,,,,
2017-12-01 10:20:00+00:00,1512124120.5,12.6195,,23.765,24.375,0.615,2.465,0.105,0.3,8.74,95.45,56.4975,0.791325,,,,
2017-12-01 10:40:00+00:00,1512125470,12.556,,22.92,23.58,0.62,2.47,0.12,0.34,8.82,95.62,55.973,0.78403,,,,
2017-12-01 11:00:00+00:00,1512126370,12.497,,23.12,23.77,0.86,3.44,0.3,0.85,8.81,95.52,55.417,0.77623,,,,
2017-12-01 11:20:00+00:00,1512127720,12.4185,,23.005,23.67,0.655,2.625,0.12,0.335,8.765,94.815,54.545,0.76399,,,,
2017-12-01 11:40:00+00:00,1512129070,12.309,,23.15,23.81,0.45,1.81,0.05,0.15,8.9,96.13,54.073,0.75738,,,,
2017-12-01 12:00:00+00:00,1512129970,12.215,,21.75,22.5,0.45,1.8,0.09,0.26,9.02,96.36,54.067,0.75731,,,,
2017-12-01 12:20:00+00:00,1512131320.5,12.1475,,22.915,23.585,0.435,1.74,0.1,0.275,9.225,99.205,54.0365,0.756905,,,,
2017-12-01 12:40:00+00:00,1512132671,12.096,,24.42,25,0.47,1.9,0.12,0.34,9.16,99.28,55.065,0.77129,,,,
2017-12-01 13:00:00+00:00,1512133570,12.069,,24.64,25.2,0.46,1.85,0.04,0.12,8.97,97.35,54.05,0.75707,,,,
2017-12-01 13:20:00+00:00,1512134920,11.985,,23.755,24.385,1.145,4.58,0.63,1.755,8.72,93.92,54.838,0.768085,,,,
2017-12-01 13:40:00+00:00,1512136270,11.838,,23.11,23.78,1.58,6.32,0.9,2.53,8.62,92.13,54.624,0.7651,,,,
2017-12-01 14:00:00+00:00,1512137170,11.781,,22.64,23.34,1.83,7.33,0.86,2.4,8.42,89.68,53.047,0.743,,,,
2017-12-01 14:20:00+00:00,1512138520,11.6955,,24.085,24.695,1.66,6.64,0.825,2.31,7.955,85.315,53.345,0.747175,,,,
2017-12-01 14:40:00+00:00,1512139870,11.57,,23.01,23.69,1.5,5.99,0.87,2.44,8.05,85.53,53.398,0.74794,,,,
2017-12-01 15:00:00+00:00,1512140770,11.528,,22.88,23.58,1.5,5.99,0.84,2.36,7.82,82.96,53.295,0.74649,,,,
2017-12-01 15:20:00+00:00,1512142120,11.44,,23.08,23.765,1.53,6.12,0.9,2.515,7.925,83.985,53.553,0.750095,,,,
2017-12-01 15:40:00+00:00,1512143470,11.385,,23.19,23.87,1.51,6.04,0.69,1.94,7.79,82.47,53.827,0.75393,,,,
2017-12-01 16:00:00+00:00,1512144370,11.309,,22.97,23.67,1.48,5.93,0.57,1.6,7.68,81.1,51.968,0.72791,,,,
2017-12-01 16:20:00+00:00,1512145720,11.368,,24.005,24.63,1.595,6.395,0.605,1.695,7.82,83.25,54.558,0.764185,,,,
2017-12-01 16:40:00+00:00,1512147070,11.438,,25.8,26.29,1.37,5.49,0.48,1.35,7.65,82.48,51.723,0.7245,,,,
2017-12-01 17:00:00+00:00,1512147970,11.527,,25.95,26.43,1.4,5.61,0.53,1.5,7.14,77.19,57.465,0.80489,,,,
2017-12-01 17:20:00+00:00,1512149320,11.6575,,23.5,24.15,1.41,5.63,0.47,1.32,6.445,68.775,54.9285,0.769375,,,,
2017-12-01 17:40:00+00:00,1512150670,11.74,,22.76,23.46,15.65,62.61,11.79,33,6.35,67.57,60.793,0.85151,,,,
2017-12-01 18:00:00+00:00,1512151570,11.837,,22.89,23.58,14.94,59.76,10.69,29.92,6.58,70.2,61.337,0.85915,,,,
2017-12-01 18:20:00+00:00,1512152919.5,12.0005,,23.895,24.505,14.115,56.46,9.53,26.68,6.805,73.38,60.7275,0.85058,,,,
2017-12-01 18:40:00+00:00,1512154269,12.318,,21.74,22.48,13.55,54.19,8.73,24.44,7.86,84.19,59.782,0.83735,,,,
2017-12-01 19:00:00+00:00,1512155169,12.505,,21.61,22.36,13.19,52.75,8.42,23.58,7.49,80.44,60.68,0.84992,,,,
2017-12-01 19:20:00+00:00,1512156520,12.713,,24.235,24.81,1.575,6.3,0.595,1.655,7.345,80.545,60.7725,0.85124,,,,
2017-12-01 19:40:00+00:00,1512157870,12.805,,24.96,25.48,1.26,5.02,0.62,1.75,7.83,86.4,61.717,0.86444,,,,
2017-12-01 20:00:00+00:00,1512158770,12.886,,25.03,25.54,1.28,5.11,0.52,1.45,8.41,93.02,62.012,0.8686,,,,
2017-12-01 20:20:00+00:00,1512160120,13.1185,,24.345,24.9,1.17,4.67,0.41,1.135,8.41,93.085,62.7925,0.879515,,,,
2017-12-01 20:40:00+00:00,1512161469,13.407,,24.56,25.09,1.14,4.55,0.31,0.87,8.45,94.24,64.062,0.8973,,,,
2017-12-01 21:00:00+00:00,1512162369,13.328,,24.39,24.94,1.15,4.61,0.41,1.14,9.48,105.45,62.884,0.88079,,,,
2017-12-01 21:20:00+00:00,1512163719,13.749,,24.37,24.91,1.16,4.64,0.34,0.955,11.745,131.845,60.1395,0.84236,,,,
2017-12-01 21:40:00+00:00,1512165069,13.859,,24.38,24.92,0.48,1.93,0.16,0.46,12.49,140.45,60.443,0.84662,,,,
2017-12-01 22:00:00+00:00,1512165970,13.939,,24.72,25.24,0.49,1.98,0.21,0.59,12.32,139.08,59.015,0.8266,,,,
2017-12-01 22:20:00+00:00,1512167320,14.095,,24.06,24.62,0.665,2.66,0.36,1.01,13.45,151.74,57.6445,0.80742,,,,
2017-12-01 22:40:00+00:00,1512168670,14.147,,23.38,23.98,0.62,2.48,0.25,0.69,14.61,164.27,56.211,0.78733,,,,
2017-12-01 23:00:00+00:00,1512169570,14.171,,23.2,23.82,0.59,2.36,0.28,0.79,14.76,165.86,56.604,0.79283,,,,
2017-12-01 23:20:00+00:00,1512170919,14.2275,,24.815,25.315,0.625,2.51,0.285,0.8,14.73,167.405,56.131,0.7862,,,,
2017-12-01 23:40:00+00:00,1512172269,14.27,,24.35,24.88,0.66,2.65,0.29,0.8,14.92,169.22,55.323,0.77489,,,,
2017-12-02 00:00:00+00:00,1512173169,14.286,,24.27,24.81,0.73,2.9,0.39,1.1,14.86,168.55,55.637,0.7793,,,,
2017-12-02 00:20:00+00:00,1512174519,14.279,,24.42,24.95,0.93,3.73,0.515,1.44,14.8,167.995,55.7095,0.780305,,,,
2017-12-02 00:40:00+00:00,1512175870,14.213,,24.56,25.08,1.01,4.02,0.59,1.64,14.35,162.79,55.658,0.77963,,,,
2017-12-02 01:00:00+00:00,1512176770,14.104,,24.49,25.01,0.93,3.71,0.56,1.56,14.09,159.35,52.187,0.73096,,,,
2017-12-02 01:20:00+00:00,1512178119,13.938,,25.655,26.095,0.735,2.955,0.48,1.345,13.93,158.185,57.001,0.798425,,,,
2017-12-02 01:40:00+00:00,1512179469,13.857,,24.69,25.21,0.7,2.8,0.61,1.72,13.63,153.47,55.929,0.7834,,,,
2017-12-02 02:00:00+00:00,1512180369,13.811,,25.23,25.71,0.76,3.03,0.43,1.19,13.45,151.94,57.278,0.80231,,,,
2017-12-02 02:20:00+00:00,1512181719,13.7105,,26.515,26.895,0.77,3.085,0.455,1.265,13.1,148.87,56.289,0.788425,,,,
2017-12-02 02:40:00+00:00,1512183069,13.618,,27.33,27.64,0.78,3.11,0.33,0.93,12.77,145.6,56,0.78437,,,,
2017-12-02 03:00:00+00:00,1512183969,13.59,,26.64,27,0.83,3.33,0.39,1.1,12.75,144.58,55.896,0.78292,,,,
2017-12-02 03:20:00+00:00,1512185320,13.5645,,25.455,25.92,0.88,3.525,0.525,1.465,12.965,145.91,56.048,0.78506,,,,
2017-12-02 03:40:00+00:00,1512186669,13.48,,25.13,25.62,0.94,3.74,0.55,1.53,12.99,145.63,55.441,0.77652,,,,
2017-12-02 04:00:00+00:00,1512187569,13.446,,25.77,26.21,0.93,3.72,0.52,1.47,12.71,142.94,56.073,0.78539,,,,
2017-12-02 04:20:00+00:00,1512188919,13.385,,25.52,25.98,1,3.995,0.615,1.725,12.41,139.22,56.1975,0.78714,,,,
2017-12-02 04:40:00+00:00,1512190269,13.322,,25.46,25.93,0.91,3.63,0.56,1.57,12.28,137.48,55.928,0.78338,,,,
2017-12-02 05:00:00+00:00,1512191169,13.313,,25.45,25.92,1.02,4.08,0.62,1.74,12.14,135.96,56.021,0.78467,,,,
2017-12-02 05:20:00+00:00,1512192519,13.2495,,25.345,25.825,1.01,4.05,0.635,1.78,11.82,132.105,56.242,0.78776,,,,
2017-12-02 05:40:00+00:00,1512193869,13.036,,26.88,27.24,0.98,3.91,0.58,1.61,11.85,133.11,56.597,0.79275,,,,
2017-12-02 06:00:00+00:00,1512194770,12.971,,26.34,26.74,0.9,3.58,0.53,1.49,11.58,129.44,56.52,0.79166,,,,
2017-12-02 06:20:00+00:00,1512196119,12.9575,,24.37,24.93,0.885,3.54,0.615,1.72,11.4,125.815,55.775,0.781225,,,,
2017-12-02 06:40:00+00:00,1512197469,12.906,,24.17,24.75,0.88,3.52,0.59,1.65,11.33,124.72,55.468,0.77692,,,,
2017-12-02 07:00:00+00:00,1512198369,12.877,,23.85,24.44,0.82,3.3,0.62,1.75,11.37,124.84,55.391,0.77585,,,,
2017-12-02 07:20:00+00:00,1512199719,12.797,,25.01,25.525,0.795,3.185,0.705,1.975,11.065,122.21,54.5545,0.764145,,,,
2017-12-02 07:40:00+00:00,1512201069,12.738,,26.09,26.53,0.84,3.34,0.62,1.75,10.86,120.56,54.71,0.76632,,,,
2017-12-02 08:00:00+00:00,1512201969,12.701,,25.99,26.43,0.77,3.06,0.58,1.62,11.03,122.31,55.2,0.77318,,,,
2017-12-02 08:20:00+00:00,1512203319,12.587,,25.675,26.145,0.805,3.23,0.735,2.055,10.785,119.05,55.0545,0.77113,,,,
2017-12-02 08:40:00+00:00,1512204669,12.493,,25.41,25.9,0.85,3.4,0.72,2.01,10.96,120.62,55.09,0.77162,,,,
2017-12-02 09:00:00+00:00,1512205569,12.45,,22.41,23.11,0.9,3.61,0.61,1.7,11.03,119.01,54.609,0.76489,,,,
2017-12-02 09:20:00+00:00,1512206919,12.3795,,22.925,23.59,0.9,3.595,0.655,1.825,10.825,116.97,54.6895,0.76601,,,,
2017-12-02 09:40:00+00:00,1512208269,12.279,,22.54,23.24,0.87,3.48,0.72,2.02,10.59,113.95,55.441,0.77656,,,,
2017-12-02 10:00:00+00:00,1512209169,12.24,,22.24,22.95,0.86,3.44,0.64,1.79,10.65,114.19,54.503,0.76341,,,,
2017-12-02 10:20:00+00:00,1512210518,12.161,,20.995,21.78,0.855,3.415,0.765,2.145,10.54,111.975,54.495,0.763295,,,,
2017-12-02 10:40:00+00:00,1512211868,12.08,,21.99,22.72,0.8,3.21,0.74,2.07,10.43,111.29,54.551,0.76408,,,,
2017-12-02 11:00:00+00:00,1512212769,12.035,,22.06,22.79,0.77,3.09,0.67,1.87,10.32,110.05,54.105,0.75786,,,,
2017-12-02 11:20:00+00:00,1512214119,11.9425,,22.05,22.785,0.735,2.935,0.715,2,10.32,109.875,54.6855,0.76596,,,,
2017-12-02 11:40:00+00:00,1512215469,11.869,,22.16,22.89,0.72,2.86,0.65,1.81,10.03,106.69,55.084,0.7716,,,,
2017-12-02 12:00:00+00:00,1512216369,11.837,,21.95,22.69,0.74,2.97,0.7,1.97,10.15,107.77,54.21,0.7593,,,,
2017-12-02 12:20:00+00:00,1512217718,11.787,,22.665,23.365,0.725,2.895,0.605,1.695,10.215,108.81,53.979,0.75607,,,,
2017-12-02 13:00:00+00:00,1512219969,11.707,,24.74,25.3,0.7,2.8,0.6,1.67,9.92,106.85,53.696,0.7521,,,,
2017-12-02 13:20:00+00:00,1512221319,11.6785,,23.915,24.535,0.76,3.035,0.585,1.635,9.705,103.925,53.3565,0.74736,,,,
2017-12-02 13:40:00+00:00,1512222669,11.676,,24.09,24.7,0.72,2.89,0.55,1.53,9.31,99.85,54.664,0.76565,,,,
2017-12-02 14:00:00+00:00,1512223569,11.641,,23.84,24.47,0.69,2.76,0.59,1.64,9.07,97.02,54.001,0.75635,,,,
2017-12-02 14:20:00+00:00,1512224918.5,11.4855,,24.61,25.19,0.655,2.6,0.6,1.685,8.975,96.1,52.9405,0.741535,,,,
2017-12-02 14:40:00+00:00,1512226268,11.251,,25.34,25.87,0.69,2.77,0.67,1.86,8.85,94.77,53.369,0.74752,,,,
2017-12-02 15:00:00+00:00,1512227168,11.207,,24.05,24.68,0.71,2.84,0.66,1.84,9.07,96.25,53.741,0.75272,,,,
2017-12-02 15:20:00+00:00,1512228518,11.1415,,23.43,24.105,0.675,2.7,0.585,1.64,8.965,94.62,52.7495,0.738855,,,,
2017-12-02 15:40:00+00:00,1512229868,11.119,,23.27,23.95,0.68,2.72,0.66,1.85,8.89,93.68,53.16,0.74458,,,,
2017-12-02 16:00:00+00:00,1512230768,11.117,,23.17,23.86,0.62,2.47,0.49,1.37,8.64,91.02,54.46,0.76282,,,,
2017-12-02 16:20:00+00:00,1512232118,11.166,,23.13,23.82,0.585,2.335,0.545,1.525,8.35,88.02,56.126,0.78615,,,,
2017-12-02 16:40:00+00:00,1512233468,11.322,,23.1,23.79,0.53,2.11,0.4,1.13,7.35,77.68,53.568,0.75034,,,,
2017-12-02 17:00:00+00:00,1512234368,11.439,,23.81,24.45,0.47,1.88,0.35,0.98,6.85,72.92,60.223,0.84354,,,,
2017-12-02 17:20:00+00:00,1512235718,11.568,,23.415,24.075,0.42,1.67,0.335,0.94,6.1,64.97,63.3325,0.88707,,,,
2017-12-02 17:40:00+00:00,1512237068,11.717,,23.46,24.12,0.61,2.43,0.69,1.93,5.5,58.83,64.576,0.90452,,,,
2017-12-02 18:00:00+00:00,1512237968,11.756,,23.48,24.13,0.38,1.51,0.24,0.68,6.12,65.49,64.802,0.90766,,,,
2017-12-02 18:20:00+00:00,1512239318,11.957,,22.985,23.665,0.425,1.7,0.625,1.745,5.98,64.05,61.723,0.86454,,,,
2017-12-02 18:40:00+00:00,1512240668,12.307,,22.59,23.28,0.45,1.78,0.78,2.17,5.54,59.6,65.77,0.92122,,,,
2017-12-02 19:00:00+00:00,1512241568,12.587,,22.55,23.24,0.4,1.62,0.16,0.44,5.13,55.52,67.731,0.94869,,,,
2017-12-02 19:20:00+00:00,1512242918,12.612,,23.205,23.85,0.39,1.565,0.16,0.445,5.92,64.4,68.733,0.96274,,,,
2017-12-02 19:40:00+00:00,1512244268,12.767,,23.16,23.81,0.4,1.58,0.19,0.54,6.04,65.86,71.208,0.9974,,,,
2017-12-02 20:00:00+00:00,1512245168,12.847,,22.76,23.43,0.51,2.04,0.32,0.89,6.36,69.29,67.6,0.94685,,,,
2017-12-02 20:20:00+00:00,1512246518,12.9725,,23.65,24.26,0.355,1.415,0.215,0.605,7.865,86.515,68.583,0.96063,,,,
2017-12-02 20:40:00+00:00,1512247868,13.175,,25.16,25.66,0.32,1.29,0.2,0.55,9.03,100.65,66.623,0.93315,,,,
2017-12-02 21:00:00+00:00,1512248768,13.397,,23.96,24.54,0.38,1.53,0.14,0.4,9.49,105.46,66.081,0.92557,,,,
2017-12-02 21:20:00+00:00,1512250117,13.4425,,24.385,24.93,0.345,1.37,0.16,0.455,9.14,101.955,64.3345,0.90111,,,,
2017-12-02 21:40:00+00:00,1512251468,13.549,,24.5,25.04,0.4,1.6,0.38,1.07,10.29,115.12,63.174,0.88489,,,,
2017-12-02 22:00:00+00:00,1512252368,13.552,,24.42,24.97,0.54,2.15,0.58,1.64,11.56,129.26,61.895,0.86696,,,,
2017-12-02 22:20:00+00:00,1512253717.5,13.639,,24.435,24.975,0.6,2.405,0.465,1.31,12.865,144.125,60.431,0.84644,,,,
2017-12-02 22:40:00+00:00,1512255068,13.708,,24.39,24.93,0.8,3.21,0.74,2.08,14.25,159.82,58.628,0.82117,,,,
2017-12-02 23:00:00+00:00,1512255968,13.706,,25.5,25.95,0.98,3.91,0.9,2.53,14.97,168.97,57.699,0.80815,,,,
2017-12-02 23:20:00+00:00,1512257318,13.6525,,24.985,25.485,1.32,5.28,1.2,3.36,15.245,171.405,57.507,0.80547,,,,
2017-12-02 23:40:00+00:00,1512258668,13.651,,25.15,25.64,1.68,6.72,1.44,4.04,15.14,170.39,57.594,0.80669,,,,
2017-12-03 00:00:00+00:00,1512259568,13.658,,25.24,25.72,2.12,8.48,1.72,4.82,15,168.94,57.927,0.81137,,,,
2017-12-03 00:20:00+00:00,1512260918,13.6785,,25.365,25.83,3.17,12.7,2.795,7.835,14.815,167.025,55.706,0.780255,,,,
2017-12-03 00:40:00+00:00,1512262267,13.693,,25.29,25.76,4.48,17.92,4.07,11.4,14.63,164.89,48.447,0.67857,,,,
2017-12-03 01:00:00+00:00,1512263168,13.677,,25.92,26.35,5.06,20.24,4.94,13.84,14.38,162.69,47.915,0.67114,,,,
2017-12-03 01:20:00+00:00,1512264518,13.61,,26.465,26.845,5.885,23.55,5.76,16.13,13.99,158.575,42.2915,0.592365,,,,
2017-12-03 01:40:00+00:00,1512265868,13.504,,26.56,26.94,6.94,27.75,7.08,19.82,13.67,154.7,40.057,0.56109,,,,
2017-12-03 02:00:00+00:00,1512266768,13.477,,28.06,28.31,6.86,27.45,7.26,20.32,13.23,151.09,38.314,0.53666,,,,
2017-12-03 02:20:00+00:00,1512268117.5,13.42,,25.16,25.65,6.96,27.85,7.045,19.73,13.045,146.17,38.3335,0.536925,,,,
2017-12-03 02:40:00+00:00,1512269467,13.37,,24.95,25.45,6.22,24.87,6.27,17.56,12.26,136.98,40.674,0.56969,,,,
2017-12-03 03:00:00+00:00,1512270368,13.303,,24.36,24.91,5.57,22.3,5.87,16.42,12.3,136.8,44.329,0.6209,,,,
2017-12-03 03:20:00+00:00,1512271717.5,13.2385,,24.5,25.045,5.13,20.53,5.44,15.24,12.015,133.5,44.933,0.62936,,,,
2017-12-03 03:40:00+00:00,1512273067,13.168,,24.47,25.01,5.74,22.97,5.49,15.37,12.09,134.12,45.468,0.63686,,,,
2017-12-03 04:00:00+00:00,1512273968,13.143,,24.28,24.84,5.62,22.49,5.66,15.84,12.44,137.75,43.697,0.61204,,,,
2017-12-03 04:20:00+00:00,1512275317.5,13.183,,24.185,24.75,5.6,22.415,5.495,15.385,12.07,133.68,41.9325,0.58732,,,,
2017-12-03 04:40:00+00:00,1512276667,13.191,,24.04,24.62,5.86,23.44,5.79,16.21,11.8,130.67,43.857,0.61429,,,,
2017-12-03 05:00:00+00:00,1512277568,13.198,,23.33,23.96,6.1,24.39,5.81,16.26,11.91,131.3,43.568,0.61025,,,,
2017-12-03 05:20:00+00:00,1512278917.5,13.164,,23.39,24.015,5.68,22.71,5.625,15.745,11.615,127.965,40.648,0.569335,,,,
2017-12-03 05:40:00+00:00,1512280267,13.062,,25.25,25.74,5.24,20.95,5.16,14.46,11.28,125.47,38.308,0.53657,,,,
2017-12-03 06:00:00+00:00,1512281168,13.017,,25.55,26.02,5.86,23.46,5.8,16.23,11.26,125.44,40.089,0.56153,,,,
2017-12-03 06:20:00+00:00,1512282517.5,12.971,,24.78,25.31,5.515,22.055,5.5,15.41,10.645,117.895,41.205,0.57713,,,,
2017-12-03 06:40:00+00:00,1512283867,12.914,,23.5,24.12,4.95,19.8,4.88,13.66,10.36,113.63,47.64,0.66729,,,,
2017-12-03 07:00:00+00:00,1512284768,12.871,,23.23,23.87,5.08,20.34,5.08,14.23,10.16,111.1,43.429,0.60829,,,,
2017-12-03 07:20:00+00:00,1512286117.5,12.819,,23.04,23.695,4.905,19.61,4.805,13.47,9.87,107.725,47.6895,0.667965,,,,
2017-12-03 07:40:00+00:00,1512287467,12.719,,22.91,23.57,5.34,21.34,5.28,14.79,10.14,110.38,47.211,0.66129,,,,
2017-12-03 08:20:00+00:00,1512289717,12.6965,,22.915,23.575,4.68,18.72,4.515,12.64,9.72,105.755,47.479,0.665,,,,
2017-12-03 08:40:00+00:00,1512291067,12.703,,22.66,23.34,4.19,16.77,4.3,12.03,9.3,100.98,47.652,0.66744,,,,
2017-12-03 09:00:00+00:00,1512291967,12.694,,22.65,23.33,5.15,20.59,5.15,14.42,8.85,96.11,48.072,0.67336,,,,
2017-12-03 09:20:00+00:00,1512293317,12.667,,22.235,22.94,4.735,18.955,4.75,13.3,8.725,94.42,52.824,0.739875,,,,
2017-12-03 09:40:00+00:00,1512294667,12.64,,22.51,23.2,4.32,17.27,4.15,11.63,9.22,99.91,48.31,0.67666,,,,
2017-12-03 10:00:00+00:00,1512295567,12.629,,22.44,23.14,4.32,17.27,4.41,12.34,8.71,94.35,53.286,0.74636,,,,
2017-12-03 10:20:00+00:00,1512296917,12.596,,22.08,22.795,4.69,18.77,4.625,12.955,9.18,99.14,51.6665,0.723685,,,,
2017-12-03 10:40:00+00:00,1512298267,12.566,,22.46,23.16,3.98,15.93,3.83,10.72,8.91,96.39,47.682,0.66789,,,,
2017-12-03 11:00:00+00:00,1512299167,12.494,,23.17,23.82,4.19,16.75,4.19,11.72,9.26,100.42,48.839,0.68407,,,,
2017-12-03 11:20:00+00:00,1512300517,12.372,,24.395,24.96,4.555,18.215,6.055,16.955,9.315,101.58,48.545,0.679945,,,,
2017-12-03 11:40:00+00:00,1512301867,12.145,,25.53,26.02,4.3,17.19,4.28,11.99,9.31,101.74,56.256,0.78798,,,,
2017-12-03 12:00:00+00:00,1512302767,12.11,,25.85,26.32,3.54,14.16,3.49,9.78,8.67,94.83,57.297,0.80254,,,,
2017-12-03 12:20:00+00:00,1512304117,12.201,,24.725,25.27,2.175,8.7,1.94,5.435,7.63,83.03,68.1905,0.95514,,,,
2017-12-03 12:40:00+00:00,1512305467,12.092,,25.46,25.96,2.07,8.26,2.02,5.64,7.36,80.31,69.067,0.9674,,,,
2017-12-06 22:00:00+00:00,1512598295,13.738,,27.88,28.13,1.13,4.53,0.85,2.38,10.64,122.01,72.182,1.01105,,,,
2017-12-06 22:20:00+00:00,1512599194,13.944,,27.75,28.02,0.98,3.91,0.47,1.32,10.78,123.97,71.786,1.00548,,,,
2017-12-06 22:40:00+00:00,1512600544,14.2995,,28.865,29.02,0.72,2.885,0.32,0.89,10.91,127.31,70.976,0.99413,,,,
2017-12-06 23:00:00+00:00,1512601894,14.453,,29.63,29.71,0.75,2.99,0.31,0.87,11,129.37,70.2,0.98325,,,,
2017-12-06 23:40:00+00:00,1512604144,14.4715,,29.25,29.365,0.925,3.685,0.445,1.245,11.335,133.07,69.323,0.970985,,,,
2017-12-07 00:00:00+00:00,1512605494,14.37,,28.82,28.97,1,4.01,0.37,1.04,11.37,132.79,69.473,0.97308,,,,
2017-12-07 00:20:00+00:00,1512606393,14.31,,28.62,28.79,1.03,4.13,0.44,1.22,10.84,126.38,69.003,0.96649,,,,
2017-12-07 00:40:00+00:00,1512607744,14.1225,,28.49,28.68,1.175,4.7,0.575,1.6,10.87,126.11,68.8705,0.964665,,,,
2017-12-07 01:00:00+00:00,1512609094,13.498,,31.35,31.28,2.14,8.55,1.4,3.92,10.82,126.03,66.321,0.92894,,,,
2017-12-07 01:20:00+00:00,1512609994,12.972,,30.17,30.23,3.46,13.86,2.57,7.19,12.02,137.61,62.593,0.87674,,,,
2017-12-07 01:40:00+00:00,1512611344,12.4,,29.635,29.765,5.89,23.555,4.8,13.435,12.81,144.4,59.056,0.82716,,,,
2017-12-07 02:00:00+00:00,1512612694,11.944,,29.68,29.83,9.1,36.42,7.78,21.78,12.97,144.81,55.84,0.78215,,,,
2017-12-07 02:20:00+00:00,1512613594,11.665,,28.96,29.19,11.02,44.09,9.14,25.59,12.98,143.43,55.11,0.77189,,,,
2017-12-07 02:40:00+00:00,1512614944,11.339,,29.04,29.27,14.675,58.685,12.755,35.715,12.945,142.155,53.314,0.746765,,,,
2017-12-07 03:00:00+00:00,1512616293,11.064,,28.89,29.15,17.33,69.33,15.87,44.45,13.04,142.19,45.588,0.63855,,,,
2017-12-07 03:20:00+00:00,1512617194,10.886,,28.28,28.6,19.63,78.53,17.72,49.61,12.96,140.26,41.521,0.58157,,,,
2017-12-07 03:40:00+00:00,1512618544,10.6415,,28.215,28.55,22.785,91.125,20.14,56.4,12.725,136.93,35.2095,0.493165,,,,
2017-12-07 04:00:00+00:00,1512619893,10.384,,28.65,28.95,24.66,98.63,22.27,62.36,12.2,130.95,35.497,0.49723,,,,
2017-12-07 04:20:00+00:00,1512620794,10.266,,28.91,29.2,26.06,104.26,23.91,66.96,11.83,126.8,41.001,0.57428,,,,
2017-12-07 04:40:00+00:00,1512622143.5,10.103,,28.25,28.605,28.215,112.855,26.47,74.115,11.295,120.17,57.2765,0.802275,,,,
2017-12-07 05:00:00+00:00,1512623494,9.916,,27.66,28.07,29.13,116.54,28.15,78.83,10.9,114.98,65.501,0.91746,,,,
2017-12-07 05:20:00+00:00,1512624394,9.914,,27.71,28.12,30.84,123.34,29.89,83.68,10.69,112.84,,,,,,
2017-12-07 05:40:00+00:00,1512625744,9.8615,,27.075,27.535,29.795,119.18,29.55,82.745,10.525,110.5,,,,,,
2017-12-07 06:00:00+00:00,1512627094,9.802,,26.75,27.24,31.43,125.71,30.39,85.08,10.38,108.71,,,,,,
2017-12-07 06:20:00+00:00,1512627994,9.757,,26.8,27.29,30.15,120.62,29.64,83,10.3,107.71,52.966,0.64328,,,,
2017-12-07 06:40:00+00:00,1512629343.5,9.717,,26.505,27.02,29.35,117.385,29.34,82.155,10.205,106.41,,,,,,
2017-12-07 07:00:00+00:00,1512630694,9.691,,26.21,26.75,28.95,115.81,28.87,80.85,9.84,102.4,92.199,1.29141,,,,
2017-12-07 07:20:00+00:00,1512631593,9.606,,26.49,27.01,29.55,118.2,29.13,81.56,9.57,99.59,66.381,0.92981,,,,
2017-12-07 07:40:00+00:00,1512632943.5,9.516,,27.525,27.97,28.345,113.38,27.905,78.13,9.43,98.535,63.3725,0.887665,,,,
2017-12-07 08:00:00+00:00,1512634294,9.335,,27.34,27.81,28.72,114.89,28.39,79.49,9.25,96.13,56.309,0.7887,,,,
2017-12-07 08:20:00+00:00,1512635193,9.197,,27.19,27.68,27.73,110.93,27.63,77.35,9.33,96.57,56.661,0.79363,,,,
2017-12-07 08:40:00+00:00,1512636543.5,9.149,,27.075,27.575,27.215,108.865,27.035,75.695,8.94,92.38,51.858,0.72634,,,,
2017-12-07 09:00:00+00:00,1512637893,9.063,,25.66,26.27,26.66,106.63,26.44,74.02,9,91.92,64.7,0.90622,,,,
2017-12-07 09:20:00+00:00,1512638794,8.951,,26.12,26.7,27.05,108.2,26.81,75.07,8.84,90.39,52.453,0.73468,,,,